SCP
-0 -0 -0 -0 -0 -0 -0 -0 -0 -0 -0 -0 -0 -0 -0 -0 -0 -0 -0 -0 0 0 -0 0 -0 -0 -0 -0 -0 -0 -0 0 0 0 0 0 0 0 0 0 -0 -0 -0
-1 -0 -1 -0 -0 -0 -0 -0 -0 -0 -0 -0 -0 -0 -0 -0 -0 -0 -0 0 -0 -0 -0 -0 -0 -0 -0 -0 -0 -0 0 -0 0 0 0 0 0 -0 0 0 -0 0 0
-0 -0 -0 -0 -0 -0 -0 -0 -0 -0 -0 -0 -0 -0 -0 -0 -0 0 -0 -0 0 0 0 -0 -0 -0 -0 -0 -0 0 -0 0 0 0 -0 0 0 -0 -0 -0 -0 0 0
-0 -0 -0 -0 -0 -0 -0 -0 -0 -0 -0 -0 -0 -0 -0 -0 -0 -0 0 0 0 0 0 0 -0 -0 -0 -0 -0 -0 -0 -0 -0 0 -0 0 0 0 0 0 -0 -0 0
-0 -0 -0 -0 -0 -0 -0 -0 -0 -0 -0 -0 -0 -0 -0 -0 -0 -0 0 0 -0 0 0 0 0 0 0 -0 -0 -0 -0 -0 -0 0 0 0 0 0 0 0 0 -0 0
-0 -0 -0 -0 -0 -0 -0 -0 -0 -0 -0 -0 -0 -0 0 0 0 0 -0 0 0 0 0 -0 -0 0 -0 -0 -0 -0 0 0 0 -0 0 -0 -0 -0 -0 0 -0 -0 -0
-2 -0 -0 -0 -0 -0 -0 -0 -0 -0 -0 -0 -0 -0 -0 0 0 0 0 0 0 -0 -0 -0 0 0 0 -0 -0 -0 -0 -0 0 0 0 -0 -0 -0 -0 -0 -0 -0 -0
-1 -1 -0 -0 -0 -0 -0 -0 -0 -0 -0 -0 -0 -0 -0 0 0 0 0 0 0 -0 0 -0 -0 -0 -0 0 0 -0 -0 -0 0 0 0 -0 -0 -0 -0 -0 -0 -0 -0
-1 -0 -0 -0 -0 -0 -0 -0 -0 -0 -0 -0 -0 -0 -0 0 0 0 0 0 0 -0 -0 -0 -0 -0 -0 -0 -0 -0 -0 -0 0 0 0 0 -0 -0 -0 -0 -0 -0 -0
-1 0 -0 -0 -0 -0 -0 -0 0 0 -0 0 0 0 0 0 -0 -0 -0 0 0 0 -0 -0 -0 -0 -0 -0 -0 -0 -0 -0 0 0 -0 0 -0 -0 -0 -0 -0 -0 -0
0 -0 -0 -0 -0 -0 -0 0 0 -0 0 0 -0 0 0 -0 0 -0 -0 -0 0 0 -0 0 -0 0 -0 -0 -0 -0 -0 0 0 0 -0 0 -0 -0 -0 -0 -0 -0 -0
-0 -0 -0 -0 -0 -0 0 0 0 0 0 0 0 0 -0 0 0 0 -0 -0 -0 0 0 0 0 0 0 0 0 -0 -0 0 0 0 0 0 -0 -0 -0 -0 -0 -0 0
-0 0 0 -0 0 0 0 0 0 0 0 0 0 0 0 0 0 0 1 0 0 0 0 0 0 0 0 0 0 0 -0 -0 0 0 0 -0 0 -0 -0 -0 -0 -0 0
0 0 0 0 0 0 0 0 0 0 0 0 0 -0 -0 0 0 0 0 0 0 0 0 1 0 0 0 0 0 0 -0 -0 0 0 0 -0 0 -0 -0 -0 -0 -0 0
0 1 0 0 1 1 0 0 0 0 0 0 0 -0 0 0 0 0 0 0 0 1 0 0 0 0 0 0 0 0 0 -0 0 0 0 0 0 0 0 -0 -0 -0 0
1 0 1 0 0 0 0 1 1 0 0 -0 0 0 -0 -0 0 0 0 0 0 1 1 0 0 0 -0 -0 0 0 0 0 0 0 0 0 0 0 0 -0 -0 -0 -0
2 1 0 0 0 0 0 0 0 -0 -0 -0 0 -0 -0 -0 0 0 0 0 0 0 0 0 0 0 0 0 0 0 0 0 0 0 0 0 0 0 0 0 -0 -0 -0
2 2 1 0 1 1 0 0 0 0 -0 -0 -0 -0 -0 -0 0 0 0 0 0 0 0 0 0 0 -0 0 -0 0 0 0 0 0 1 0 0 0 0 0 -0 -0 -0
4 4 2 1 1 1 0 0 0 0 -0 0 0 0 0 0 0 0 0 0 0 0 0 0 0 0 0 -0 -0 0 -0 0 0 0 1 0 0 0 1 0 -0 -0 -0
3 4 3 2 2 2 1 0 0 0 0 0 -0 -0 -0 -0 0 0 0 0 0 0 0 0 0 0 0 0 -0 0 1 1 0 0 0 1 1 0 0 0 0 0 -0
4 4 2 2 4 3 0 0 0 0 -0 0 -0 0 -0 0 0 0 0 0 -0 0 0 -0 0 0 0 -0 0 1 1 1 0 0 1 1 1 0 0 0 1 0 0
4 3 3 3 2 3 0 0 0 0 -0 0 0 0 -0 0 0 0 0 0 0 -0 0 0 0 0 0 -0 0 1 0 0 0 1 1 1 0 1 0 1 1 0 0
2 2 2 1 1 1 0 0 0 0 0 0 0 0 1 1 0 0 0 0 0 0 -0 -0 0 0 0 0 0 0 0 0 0 1 1 1 0 1 1 1 1 0 0
1 1 1 1 0 0 -0 -0 -0 -0 -0 0 0 0 0 0 0 0 0 0 0 0 0 -0 0 0 0 0 1 0 0 0 0 0 0 0 0 1 1 1 1 0 0
1 1 1 0 0 0 0 -0 0 0 -0 0 0 0 0 0 0 0 0 0 0 0 0 0 0 0 0 0 0 0 0 0 0 0 0 0 0 0 0 0 0 0 0
1 1 0 0 0 0 0 0 0 0 -0 0 0 0 0 0 0 -0 0 0 0 0 0 0 0 0 0 0 0 0 0 0 0 0 0 0 0 0 0 0 1 0 0
Wind_Speed_500mb
36 44 41 40 36 34 32 27 25 23 22 22 21 20 23 24 20 19 19 20 19 17 14 11 9 9 9 11 12 15 14 16 18 20 22 26 29 35 35 36 23 20 24
34 42 43 39 36 34 30 26 23 21 19 19 21 22 21 22 17 17 19 20 19 14 13 11 8 8 9 9 9 14 13 17 20 21 21 25 29 29 30 26 27 18 23
29 44 44 38 35 31 28 24 23 20 18 18 18 19 19 19 16 16 18 18 15 13 9 10 10 6 7 10 10 14 17 21 21 29 28 19 23 26 23 27 13 19 22
35 46 46 40 34 30 26 23 21 19 18 18 18 18 16 15 15 15 16 14 10 10 10 9 9 7 5 10 15 14 23 27 25 30 31 11 18 18 19 16 14 19 21
37 37 46 39 31 27 24 20 18 17 17 17 17 17 15 15 16 15 13 13 9 7 9 7 8 8 9 12 17 18 28 27 17 13 37 26 5 12 16 18 18 20 20
40 33 44 38 30 26 22 19 18 17 16 16 17 17 15 15 14 14 12 11 11 10 10 7 8 8 12 15 17 19 31 29 22 20 16 13 3 7 10 18 19 18 17
52 25 36 33 30 26 21 20 18 16 15 14 14 15 16 16 14 12 12 13 12 12 12 8 6 8 12 15 19 20 31 27 29 27 12 8 8 6 3 11 16 15 12
37 28 28 32 28 24 20 19 18 16 13 10 11 12 15 14 14 13 9 9 12 12 11 10 10 8 12 16 19 22 27 30 13 10 11 12 5 4 6 10 13 14 14
18 11 33 32 29 26 21 19 18 15 14 13 12 12 12 12 10 9 8 6 5 8 9 9 9 12 13 17 19 19 23 24 11 19 13 10 10 7 9 11 11 13 12
29 8 14 27 27 25 23 19 16 14 14 13 14 14 14 9 3 2 2 7 5 6 8 10 10 13 15 17 22 20 21 23 23 15 10 9 9 8 11 11 12 11 12
22 21 14 16 18 22 19 19 18 17 16 15 12 10 7 8 3 7 7 5 9 7 7 10 13 13 15 19 21 24 25 27 18 15 16 15 10 11 14 12 12 12 12
28 25 23 22 21 22 19 21 21 19 18 12 11 10 13 8 22 14 10 10 15 12 8 9 12 16 15 15 19 23 23 29 16 23 17 16 15 11 14 16 13 12 11
30 33 24 15 28 28 27 24 24 21 17 15 18 16 18 17 13 9 19 18 12 11 6 7 13 20 23 22 20 22 17 25 22 24 20 14 10 15 15 19 16 13 14
36 30 29 27 29 20 27 32 29 26 21 28 29 34 31 25 25 26 12 13 13 18 18 25 23 12 19 18 22 21 24 19 24 19 21 19 15 12 21 21 21 19 14
36 30 32 28 28 26 38 31 26 18 24 27 33 36 31 28 27 31 37 33 19 25 28 31 32 24 32 30 26 30 27 30 28 31 22 16 17 17 21 23 25 26 24
24 26 29 23 29 35 35 37 19 25 27 31 40 21 20 28 37 37 33 39 40 41 42 40 36 35 36 28 32 30 31 30 29 36 37 28 23 24 25 25 28 30 29
29 29 21 18 17 23 33 32 32 18 17 13 23 26 29 32 36 39 34 37 40 30 35 25 30 13 57 62 45 31 22 26 28 27 30 32 33 28 29 26 29 33 38
28 32 26 20 22 22 22 26 20 18 23 18 30 24 26 30 38 38 36 24 32 24 27 27 44 46 46 44 44 34 28 23 28 25 30 32 33 28 29 30 30 35 40
33 29 35 33 25 23 16 17 19 24 23 12 15 25 34 34 37 35 40 24 30 42 33 32 34 39 40 42 41 31 39 30 25 30 34 30 31 32 34 34 40 32 40
37 34 40 33 17 18 16 9 9 14 13 16 29 23 18 26 36 34 43 47 39 44 45 42 37 33 39 44 34 28 30 29 30 32 33 36 35 34 39 30 37 42 44
33 28 25 28 26 22 9 11 14 16 16 19 23 39 26 29 35 41 47 46 44 50 46 42 33 37 50 52 40 34 23 30 39 40 42 44 37 32 35 50 51 47 48
19 22 24 30 26 21 22 7 10 15 10 21 19 25 24 23 26 34 40 44 44 48 47 49 46 41 40 46 37 28 31 39 48 58 51 43 29 29 27 29 45 55 49
22 26 27 19 20 20 11 16 17 15 15 14 11 9 15 25 36 34 36 38 41 41 47 48 45 54 47 47 46 36 18 18 20 31 45 33 27 27 26 29 34 45 48
13 18 21 17 11 23 20 17 18 16 11 11 6 15 23 22 25 32 35 37 39 36 38 39 42 47 49 51 43 39 43 28 10 6 15 15 24 32 28 29 30 35 44
19 18 16 13 12 16 15 17 17 7 8 9 17 18 22 28 17 25 32 38 34 32 34 34 36 40 40 38 41 38 42 36 29 26 9 9 16 13 17 25 23 26 33
21 19 19 24 24 16 13 10 8 8 14 9 13 17 18 23 33 33 26 27 28 33 28 27 23 25 29 32 34 36 42 38 26 34 27 24 11 15 19 20 32 33 35
Wind_Direction_500mb
140 146 141 136 131 131 133 130 128 120 111 112 113 112 116 123 120 116 122 126 125 123 125 120 118 110 92 110 91 112 115 118 118 118 118 108 102 106 100 89 76 101 103
149 153 148 138 135 135 135 133 133 127 119 118 121 120 125 125 119 118 126 134 117 113 119 115 119 113 106 109 97 118 109 106 103 106 108 104 111 114 108 116 149 95 105
146 156 152 145 137 134 134 134 135 133 125 123 123 122 129 127 124 127 131 132 120 111 112 107 115 114 115 125 116 124 108 97 104 98 88 61 112 119 113 125 140 104 104
145 152 156 150 144 140 136 134 139 137 135 136 135 133 133 126 128 136 133 133 117 112 111 109 113 118 137 140 135 127 110 115 115 118 113 80 90 120 127 125 126 108 105
129 144 156 152 148 142 137 133 136 138 141 140 139 137 138 136 137 141 138 136 126 126 122 120 118 127 143 149 148 133 122 117 102 92 130 134 39 95 111 114 117 118 111
138 164 156 155 151 144 138 137 141 143 145 144 145 146 145 139 136 140 143 146 149 148 141 142 117 124 150 157 159 140 132 125 109 96 98 148 247 69 109 121 121 124 129
159 155 157 156 151 148 147 146 149 148 149 148 151 149 147 139 135 139 146 151 151 166 147 152 124 129 154 163 166 149 142 140 126 120 141 162 233 241 122 138 140 150 136
169 171 172 160 157 158 159 157 156 151 149 152 159 159 153 151 148 152 154 156 164 172 162 170 154 156 162 164 166 156 152 138 150 170 167 200 266 245 203 164 150 148 147
173 152 172 172 169 168 168 169 163 159 160 165 174 172 169 159 169 158 153 171 178 193 183 179 178 175 173 175 169 168 154 169 144 133 196 215 287 296 218 169 157 158 155
142 149 186 183 182 178 176 177 173 175 181 186 193 190 188 187 117 168 200 178 189 205 207 196 194 200 181 189 180 179 166 173 152 141 275 149 244 311 244 170 167 169 164
136 161 185 196 206 184 186 189 190 195 201 204 215 211 204 172 274 206 194 310 298 255 237 218 213 208 202 199 203 189 178 170 164 208 217 180 230 287 248 202 176 183 181
177 191 190 205 201 191 189 198 210 215 224 226 241 236 188 201 212 247 264 285 296 268 253 246 239 226 218 217 218 218 191 166 165 247 198 199 233 264 245 213 193 186 193
179 191 202 191 200 211 201 204 209 210 206 218 243 250 217 227 211 238 244 250 264 248 284 269 290 256 232 211 237 232 206 186 163 209 244 221 198 250 246 222 207 198 196
178 201 207 215 225 218 223 223 213 213 214 219 222 235 233 226 217 206 222 247 267 263 227 220 229 234 239 248 231 235 218 202 185 203 240 264 223 252 248 225 211 210 207
176 200 211 217 230 206 223 243 181 188 215 227 232 241 242 242 228 238 220 231 214 248 260 253 240 220 276 251 240 223 235 213 194 190 226 244 223 242 248 238 226 224 221
175 196 192 207 224 216 222 235 237 228 240 273 233 235 263 268 258 252 245 255 263 263 278 244 250 247 253 235 253 234 234 233 219 218 208 235 240 240 249 250 245 236 230
182 182 201 203 228 233 218 226 221 206 253 256 262 237 260 270 275 264 265 264 267 276 263 240 247 284 252 237 234 235 239 249 238 239 226 221 231 239 247 253 254 243 235
186 189 201 192 209 227 217 224 211 193 187 222 237 268 270 275 280 276 268 261 276 281 256 263 238 245 231 249 224 229 236 230 251 250 251 248 219 238 252 253 256 247 239
186 193 209 203 195 221 213 213 195 218 192 213 244 249 264 271 278 273 272 258 267 276 274 260 250 219 239 235 243 243 223 249 238 248 267 261 239 223 232 239 252 254 240
206 213 225 222 210 202 204 206 235 256 219 229 230 242 293 277 282 273 275 272 255 264 262 261 249 230 229 239 242 252 256 264 258 250 253 274 256 234 233 234 238 243 240
195 208 229 228 225 211 192 245 226 243 271 277 272 257 322 286 271 273 277 270 260 258 263 261 259 246 234 225 219 230 226 251 255 254 253 264 269 246 232 233 245 243 246
192 221 210 222 234 214 269 171 245 248 258 295 286 281 313 305 300 300 295 287 275 267 257 256 251 251 234 238 246 245 250 252 249 244 248 253 264 260 251 242 241 244 249
209 206 217 239 227 220 204 211 277 284 297 305 310 341 275 289 305 315 310 289 286 278 269 257 250 244 244 244 243 242 244 249 328 232 231 242 254 247 247 251 254 250 238
196 188 229 264 238 197 205 240 267 274 298 327 342 278 294 333 296 304 327 320 303 293 277 269 252 248 247 247 240 230 225 259 301 201 214 250 247 248 252 254 253 242 241
173 173 218 260 149 173 169 167 221 236 335 292 288 323 360 331 310 312 310 314 314 303 287 273 262 249 248 245 234 229 221 240 261 248 264 268 261 267 262 249 251 262 257
173 172 188 188 147 159 174 188 225 253 265 288 338 359 307 345 327 330 329 329 332 329 299 273 263 251 247 239 231 231 232 236 237 236 243 240 249 253 257 269 261 250 277
Wind_Speed_850mb
36 44 41 40 36 34 32 27 25 23 22 22 21 20 23 24 20 19 19 20 19 17 14 11 9 9 9 11 12 15 14 16 18 20 22 26 29 35 35 36 23 20 24
34 42 43 39 36 34 30 26 23 21 19 19 21 22 21 22 17 17 19 20 19 14 13 11 8 8 9 9 9 14 13 17 20 21 21 25 29 29 30 26 27 18 23
29 44 44 38 35 31 28 24 23 20 18 18 18 19 19 19 16 16 18 18 15 13 9 10 10 6 7 10 10 14 17 21 21 29 28 19 23 26 23 27 13 19 22
35 46 46 40 34 30 26 23 21 19 18 18 18 18 16 15 15 15 16 14 10 10 10 9 9 7 5 10 15 14 23 27 25 30 31 11 18 18 19 16 14 19 21
37 37 46 39 31 27 24 20 18 17 17 17 17 17 15 15 16 15 13 13 9 7 9 7 8 8 9 12 17 18 28 27 17 13 37 26 5 12 16 18 18 20 20
40 33 44 38 30 26 22 19 18 17 16 16 17 17 15 15 14 14 12 11 11 10 10 7 8 8 12 15 17 19 31 29 22 20 16 13 3 7 10 18 19 18 17
52 25 36 33 30 26 21 20 18 16 15 14 14 15 16 16 14 12 12 13 12 12 12 8 6 8 12 15 19 20 31 27 29 27 12 8 8 6 3 11 16 15 12
37 28 28 32 28 24 20 19 18 16 13 10 11 12 15 14 14 13 9 9 12 12 11 10 10 8 12 16 19 22 27 30 13 10 11 12 5 4 6 10 13 14 14
18 11 33 32 29 26 21 19 18 15 14 13 12 12 12 12 10 9 8 6 5 8 9 9 9 12 13 17 19 19 23 24 11 19 13 10 10 7 9 11 11 13 12
29 8 14 27 27 25 23 19 16 14 14 13 14 14 14 9 3 2 2 7 5 6 8 10 10 13 15 17 22 20 21 23 23 15 10 9 9 8 11 11 12 11 12
22 21 14 16 18 22 19 19 18 17 16 15 12 10 7 8 3 7 7 5 9 7 7 10 13 13 15 19 21 24 25 27 18 15 16 15 10 11 14 12 12 12 12
28 25 23 22 21 22 19 21 21 19 18 12 11 10 13 8 22 14 10 10 15 12 8 9 12 16 15 15 19 23 23 29 16 23 17 16 15 11 14 16 13 12 11
30 33 24 15 28 28 27 24 24 21 17 15 18 16 18 17 13 9 19 18 12 11 6 7 13 20 23 22 20 22 17 25 22 24 20 14 10 15 15 19 16 13 14
36 30 29 27 29 20 27 32 29 26 21 28 29 34 31 25 25 26 12 13 13 18 18 25 23 12 19 18 22 21 24 19 24 19 21 19 15 12 21 21 21 19 14
36 30 32 28 28 26 38 31 26 18 24 27 33 36 31 28 27 31 37 33 19 25 28 31 32 24 32 30 26 30 27 30 28 31 22 16 17 17 21 23 25 26 24
24 26 29 23 29 35 35 37 19 25 27 31 40 21 20 28 37 37 33 39 40 41 42 40 36 35 36 28 32 30 31 30 29 36 37 28 23 24 25 25 28 30 29
29 29 21 18 17 23 33 32 32 18 17 13 23 26 29 32 36 39 34 37 40 30 35 25 30 13 57 62 45 31 22 26 28 27 30 32 33 28 29 26 29 33 38
28 32 26 20 22 22 22 26 20 18 23 18 30 24 26 30 38 38 36 24 32 24 27 27 44 46 46 44 44 34 28 23 28 25 30 32 33 28 29 30 30 35 40
33 29 35 33 25 23 16 17 19 24 23 12 15 25 34 34 37 35 40 24 30 42 33 32 34 39 40 42 41 31 39 30 25 30 34 30 31 32 34 34 40 32 40
37 34 40 33 17 18 16 9 9 14 13 16 29 23 18 26 36 34 43 47 39 44 45 42 37 33 39 44 34 28 30 29 30 32 33 36 35 34 39 30 37 42 44
33 28 25 28 26 22 9 11 14 16 16 19 23 39 26 29 35 41 47 46 44 50 46 42 33 37 50 52 40 34 23 30 39 40 42 44 37 32 35 50 51 47 48
19 22 24 30 26 21 22 7 10 15 10 21 19 25 24 23 26 34 40 44 44 48 47 49 46 41 40 46 37 28 31 39 48 58 51 43 29 29 27 29 45 55 49
22 26 27 19 20 20 11 16 17 15 15 14 11 9 15 25 36 34 36 38 41 41 47 48 45 54 47 47 46 36 18 18 20 31 45 33 27 27 26 29 34 45 48
13 18 21 17 11 23 20 17 18 16 11 11 6 15 23 22 25 32 35 37 39 36 38 39 42 47 49 51 43 39 43 28 10 6 15 15 24 32 28 29 30 35 44
19 18 16 13 12 16 15 17 17 7 8 9 17 18 22 28 17 25 32 38 34 32 34 34 36 40 40 38 41 38 42 36 29 26 9 9 16 13 17 25 23 26 33
21 19 19 24 24 16 13 10 8 8 14 9 13 17 18 23 33 33 26 27 28 33 28 27 23 25 29 32 34 36 42 38 26 34 27 24 11 15 19 20 32 33 35
Wind_Direction_850mb
140 146 141 136 131 131 133 130 128 120 111 112 113 112 116 123 120 116 122 126 125 123 125 120 118 110 92 110 91 112 115 118 118 118 118 108 102 106 100 89 76 101 103
149 153 148 138 135 135 135 133 133 127 119 118 121 120 125 125 119 118 126 134 117 113 119 115 119 113 106 109 97 118 109 106 103 106 108 104 111 114 108 116 149 95 105
146 156 152 145 137 134 134 134 135 133 125 123 123 122 129 127 124 127 131 132 120 111 112 107 115 114 115 125 116 124 108 97 104 98 88 61 112 119 113 125 140 104 104
145 152 156 150 144 140 136 134 139 137 135 136 135 133 133 126 128 136 133 133 117 112 111 109 113 118 137 140 135 127 110 115 115 118 113 80 90 120 127 125 126 108 105
129 144 156 152 148 142 137 133 136 138 141 140 139 137 138 136 137 141 138 136 126 126 122 120 118 127 143 149 148 133 122 117 102 92 130 134 39 95 111 114 117 118 111
138 164 156 155 151 144 138 137 141 143 145 144 145 146 145 139 136 140 143 146 149 148 141 142 117 124 150 157 159 140 132 125 109 96 98 148 247 69 109 121 121 124 129
159 155 157 156 151 148 147 146 149 148 149 148 151 149 147 139 135 139 146 151 151 166 147 152 124 129 154 163 166 149 142 140 126 120 141 162 233 241 122 138 140 150 136
169 171 172 160 157 158 159 157 156 151 149 152 159 159 153 151 148 152 154 156 164 172 162 170 154 156 162 164 166 156 152 138 150 170 167 200 266 245 203 164 150 148 147
173 152 172 172 169 168 168 169 163 159 160 165 174 172 169 159 169 158 153 171 178 193 183 179 178 175 173 175 169 168 154 169 144 133 196 215 287 296 218 169 157 158 155
142 149 186 183 182 178 176 177 173 175 181 186 193 190 188 187 117 168 200 178 189 205 207 196 194 200 181 189 180 179 166 173 152 141 275 149 244 311 244 170 167 169 164
136 161 185 196 206 184 186 189 190 195 201 204 215 211 204 172 274 206 194 310 298 255 237 218 213 208 202 199 203 189 178 170 164 208 217 180 230 287 248 202 176 183 181
177 191 190 205 201 191 189 198 210 215 224 226 241 236 188 201 212 247 264 285 296 268 253 246 239 226 218 217 218 218 191 166 165 247 198 199 233 264 245 213 193 186 193
179 191 202 191 200 211 201 204 209 210 206 218 243 250 217 227 211 238 244 250 264 248 284 269 290 256 232 211 237 232 206 186 163 209 244 221 198 250 246 222 207 198 196
178 201 207 215 225 218 223 223 213 213 214 219 222 235 233 226 217 206 222 247 267 263 227 220 229 234 239 248 231 235 218 202 185 203 240 264 223 252 248 225 211 210 207
176 200 211 217 230 206 223 243 181 188 215 227 232 241 242 242 228 238 220 231 214 248 260 253 240 220 276 251 240 223 235 213 194 190 226 244 223 242 248 238 226 224 221
175 196 192 207 224 216 222 235 237 228 240 273 233 235 263 268 258 252 245 255 263 263 278 244 250 247 253 235 253 234 234 233 219 218 208 235 240 240 249 250 245 236 230
182 182 201 203 228 233 218 226 221 206 253 256 262 237 260 270 275 264 265 264 267 276 263 240 247 284 252 237 234 235 239 249 238 239 226 221 231 239 247 253 254 243 235
186 189 201 192 209 227 217 224 211 193 187 222 237 268 270 275 280 276 268 261 276 281 256 263 238 245 231 249 224 229 236 230 251 250 251 248 219 238 252 253 256 247 239
186 193 209 203 195 221 213 213 195 218 192 213 244 249 264 271 278 273 272 258 267 276 274 260 250 219 239 235 243 243 223 249 238 248 267 261 239 223 232 239 252 254 240
206 213 225 222 210 202 204 206 235 256 219 229 230 242 293 277 282 273 275 272 255 264 262 261 249 230 229 239 242 252 256 264 258 250 253 274 256 234 233 234 238 243 240
195 208 229 228 225 211 192 245 226 243 271 277 272 257 322 286 271 273 277 270 260 258 263 261 259 246 234 225 219 230 226 251 255 254 253 264 269 246 232 233 245 243 246
192 221 210 222 234 214 269 171 245 248 258 295 286 281 313 305 300 300 295 287 275 267 257 256 251 251 234 238 246 245 250 252 249 244 248 253 264 260 251 242 241 244 249
209 206 217 239 227 220 204 211 277 284 297 305 310 341 275 289 305 315 310 289 286 278 269 257 250 244 244 244 243 242 244 249 328 232 231 242 254 247 247 251 254 250 238
196 188 229 264 238 197 205 240 267 274 298 327 342 278 294 333 296 304 327 320 303 293 277 269 252 248 247 247 240 230 225 259 301 201 214 250 247 248 252 254 253 242 241
173 173 218 260 149 173 169 167 221 236 335 292 288 323 360 331 310 312 310 314 314 303 287 273 262 249 248 245 234 229 221 240 261 248 264 268 261 267 262 249 251 262 257
173 172 188 188 147 159 174 188 225 253 265 288 338 359 307 345 327 330 329 329 332 329 299 273 263 251 247 239 231 231 232 236 237 236 243 240 249 253 257 269 261 250 277